View from above orbital plane
|
View from above satellite
|
Ground track
|
The orbit data is extracted from the following two-line orbital elements,
1 24971U 97057A 18112.47404085 .00000000 00000-0 15331-4 0 9993
2 24971 98.4743 58.8467 0054135 24.8197 335.5571 14.33915947 75745
Epoch (UTC): | 22 April 2018 11:22:37 |
Eccentricity: | 0.0054135 |
inclination: | 98.4743° |
perigee height: | 740 km |
apogee height: | 817 km |
right ascension of ascending node: | 58.8467° |
argument of perigee: | 24.8197° |
revolutions per day: | 14.33915947 |
mean anomaly at epoch: | 335.5571° |
orbit number at epoch: | 7574 |
The dashed part of the orbit path shows where the satellite is in the earth's shadow,
|
|